TimeEST,TemperatureF,Dew PointF,Humidity,Sea Level PressureIn,VisibilityMPH,Wind Direction,Wind SpeedMPH,Gust SpeedMPH,PrecipitationIn,Events,Conditions,WindDirDegrees,DateUTC
12:15 AM,64.4,62.6,94,29.79,10.0,South,12.7,19.6,N/A,,Overcast,180,2014-01-06 05:15:00
12:35 AM,64.4,62.6,94,29.78,10.0,South,15.0,-,N/A,,Overcast,180,2014-01-06 05:35:00
12:55 AM,64.4,62.6,94,29.77,10.0,South,10.4,19.6,N/A,,Overcast,190,2014-01-06 05:55:00
1:15 AM,64.4,64.4,100,29.75,10.0,South,13.8,20.7,N/A,,Overcast,190,2014-01-06 06:15:00
1:35 AM,64.4,64.4,100,29.74,10.0,SSW,11.5,17.3,N/A,,Overcast,200,2014-01-06 06:35:00
1:55 AM,64.4,64.4,100,29.74,10.0,SSW,10.4,-,N/A,,Overcast,200,2014-01-06 06:55:00
2:15 AM,64.4,62.6,94,29.73,10.0,South,12.7,19.6,N/A,,Overcast,190,2014-01-06 07:15:00
2:35 AM,64.4,64.4,100,29.72,10.0,South,10.4,-,N/A,,Overcast,180,2014-01-06 07:35:00
2:55 AM,64.4,62.6,94,29.70,10.0,South,12.7,-,N/A,,Mostly Cloudy,180,2014-01-06 07:55:00
3:15 AM,64.4,62.6,94,29.69,10.0,South,12.7,19.6,N/A,,Mostly Cloudy,180,2014-01-06 08:15:00
3:35 AM,64.4,62.6,94,29.68,10.0,South,13.8,19.6,N/A,,Mostly Cloudy,180,2014-01-06 08:35:00
3:55 AM,64.4,62.6,94,29.68,10.0,SSW,13.8,20.7,N/A,,Overcast,200,2014-01-06 08:55:00
4:15 AM,64.4,62.6,94,29.66,10.0,South,13.8,19.6,N/A,,Overcast,190,2014-01-06 09:15:00
4:35 AM,64.4,62.6,94,29.66,10.0,South,16.1,21.9,N/A,,Overcast,190,2014-01-06 09:35:00
4:55 AM,64.4,62.6,94,29.64,10.0,South,19.6,25.3,N/A,,Overcast,190,2014-01-06 09:55:00
5:15 AM,64.4,62.6,94,29.64,10.0,South,13.8,20.7,N/A,,Overcast,190,2014-01-06 10:15:00
5:35 AM,64.4,62.6,94,29.63,10.0,South,15.0,21.9,N/A,,Scattered Clouds,190,2014-01-06 10:35:00
5:55 AM,64.4,62.6,94,29.62,10.0,South,11.5,-,N/A,,Scattered Clouds,180,2014-01-06 10:55:00
6:15 AM,64.4,62.6,94,29.62,10.0,South,12.7,24.2,N/A,,Mostly Cloudy,190,2014-01-06 11:15:00
6:35 AM,64.4,62.6,94,29.61,10.0,South,13.8,20.7,N/A,,Overcast,190,2014-01-06 11:35:00
6:55 AM,66.2,62.6,88,29.61,10.0,SSW,15.0,23.0,N/A,,Overcast,200,2014-01-06 11:55:00
7:15 AM,66.2,62.6,88,29.61,10.0,SSW,21.9,27.6,N/A,,Overcast,200,2014-01-06 12:15:00
7:35 AM,66.2,62.6,88,29.62,10.0,SSW,16.1,27.6,N/A,,Overcast,210,2014-01-06 12:35:00
7:55 AM,66.2,62.6,88,29.62,10.0,SSW,15.0,20.7,N/A,,Mostly Cloudy,210,2014-01-06 12:55:00
8:15 AM,66.2,60.8,83,29.61,10.0,SSW,15.0,23.0,N/A,,Mostly Cloudy,200,2014-01-06 13:15:00
8:35 AM,66.2,60.8,83,29.61,10.0,SW,11.5,24.2,N/A,,Scattered Clouds,220,2014-01-06 13:35:00
8:55 AM,66.2,60.8,83,29.62,10.0,SW,16.1,26.5,N/A,,Mostly Cloudy,220,2014-01-06 13:55:00
9:15 AM,66.2,60.8,83,29.62,10.0,SW,16.1,28.8,N/A,,Overcast,220,2014-01-06 14:15:00
9:35 AM,66.2,60.8,83,29.62,10.0,SW,12.7,21.9,N/A,Rain,Light Rain,220,2014-01-06 14:35:00
9:55 AM,66.2,60.8,83,29.61,10.0,SSW,17.3,25.3,N/A,,Overcast,210,2014-01-06 14:55:00
10:15 AM,55.4,53.6,94,29.65,5.0,WNW,13.8,24.2,0.05,Rain,Rain,290,2014-01-06 15:15:00
10:35 AM,51.8,51.8,100,29.66,5.0,WNW,16.1,21.9,0.08,,Heavy Drizzle,290,2014-01-06 15:35:00
10:55 AM,51.8,50.0,94,29.67,5.0,West,15.0,21.9,0.10,,Drizzle,280,2014-01-06 15:55:00
11:15 AM,50.0,48.2,94,29.67,5.0,WNW,17.3,21.9,N/A,,Overcast,290,2014-01-06 16:15:00
11:35 AM,48.2,48.2,100,29.67,7.0,West,9.2,-,0.01,Rain,Light Rain,280,2014-01-06 16:35:00
11:55 AM,48.2,46.4,93,29.65,5.0,West,11.5,-,0.01,,Light Drizzle,280,2014-01-06 16:55:00
12:15 PM,46.4,46.4,100,29.66,3.0,West,10.4,-,N/A,Rain,Rain,270,2014-01-06 17:15:00
12:35 PM,46.4,46.4,100,29.65,4.0,West,16.1,23.0,0.02,Rain,Rain,280,2014-01-06 17:35:00
12:55 PM,44.6,42.8,93,29.66,5.0,West,12.7,-,0.04,Rain,Rain,280,2014-01-06 17:55:00
1:15 PM,44.6,42.8,93,29.67,7.0,West,11.5,19.6,0.01,,Drizzle,280,2014-01-06 18:15:00
1:35 PM,44.6,42.8,93,29.67,10.0,WNW,9.2,-,0.01,Rain,Light Rain,290,2014-01-06 18:35:00
1:55 PM,44.6,42.8,93,29.67,10.0,West,11.5,-,0.01,,Overcast,260,2014-01-06 18:55:00
2:15 PM,44.6,41.0,87,29.68,10.0,West,10.4,18.4,N/A,,Overcast,260,2014-01-06 19:15:00
2:35 PM,44.6,41.0,87,29.69,10.0,West,10.4,-,N/A,,Overcast,270,2014-01-06 19:35:00
2:55 PM,46.4,41.0,81,29.70,10.0,West,8.1,-,N/A,,Scattered Clouds,260,2014-01-06 19:55:00
3:15 PM,46.4,41.0,81,29.71,10.0,West,9.2,16.1,N/A,,Clear,260,2014-01-06 20:15:00
3:35 PM,46.4,37.4,71,29.72,10.0,West,15.0,20.7,N/A,,Clear,270,2014-01-06 20:35:00
3:55 PM,46.4,30.2,53,29.72,10.0,West,15.0,24.2,N/A,,Clear,270,2014-01-06 20:55:00
4:15 PM,46.4,30.2,53,29.74,10.0,West,13.8,-,N/A,,Clear,270,2014-01-06 21:15:00
4:35 PM,44.6,28.4,53,29.75,10.0,West,18.4,23.0,N/A,,Clear,260,2014-01-06 21:35:00
4:55 PM,42.8,28.4,57,29.77,10.0,West,13.8,20.7,N/A,,Clear,260,2014-01-06 21:55:00
5:15 PM,42.8,28.4,57,29.78,10.0,West,13.8,-,N/A,,Clear,270,2014-01-06 22:15:00
5:35 PM,41.0,26.6,57,29.80,10.0,West,11.5,21.9,N/A,,Clear,280,2014-01-06 22:35:00
5:55 PM,41.0,24.8,53,29.82,10.0,West,13.8,25.3,N/A,,Clear,280,2014-01-06 22:55:00
6:15 PM,39.2,23.0,52,29.83,10.0,West,13.8,24.2,N/A,,Clear,270,2014-01-06 23:15:00
6:35 PM,39.2,23.0,52,29.84,10.0,West,15.0,21.9,N/A,,Clear,270,2014-01-06 23:35:00
6:55 PM,37.4,23.0,56,29.86,10.0,West,13.8,21.9,N/A,,Clear,270,2014-01-06 23:55:00
7:15 PM,37.4,23.0,56,29.88,10.0,West,15.0,21.9,N/A,,Clear,280,2014-01-07 00:15:00
7:35 PM,37.4,23.0,56,29.89,10.0,West,8.1,17.3,N/A,,Clear,280,2014-01-07 00:35:00
7:55 PM,35.6,23.0,60,29.90,10.0,West,11.5,17.3,N/A,,Clear,280,2014-01-07 00:55:00
8:15 PM,35.6,21.2,56,29.91,10.0,West,17.3,21.9,N/A,,Clear,270,2014-01-07 01:15:00
8:35 PM,33.8,19.4,56,29.93,10.0,West,15.0,21.9,N/A,,Clear,280,2014-01-07 01:35:00
8:55 PM,33.8,17.6,52,29.95,10.0,West,15.0,23.0,N/A,,Clear,280,2014-01-07 01:55:00
9:15 PM,33.8,17.6,52,29.96,10.0,West,12.7,18.4,N/A,,Clear,270,2014-01-07 02:15:00
9:35 PM,32.0,14.0,48,29.98,10.0,West,15.0,20.7,N/A,,Clear,270,2014-01-07 02:35:00
9:55 PM,30.2,12.2,47,29.99,10.0,West,12.7,19.6,N/A,,Clear,270,2014-01-07 02:55:00
10:15 PM,30.2,10.4,44,30.01,10.0,West,15.0,24.2,N/A,,Clear,280,2014-01-07 03:15:00
10:35 PM,28.4,8.6,43,30.02,10.0,West,15.0,23.0,N/A,,Clear,280,2014-01-07 03:35:00
10:55 PM,28.4,3.2,34,30.02,10.0,WNW,17.3,28.8,N/A,,Clear,290,2014-01-07 03:55:00
11:15 PM,26.6,5.0,40,30.04,10.0,WNW,18.4,28.8,N/A,,Clear,290,2014-01-07 04:15:00
11:35 PM,24.8,5.0,43,30.06,10.0,West,21.9,28.8,N/A,,Clear,280,2014-01-07 04:35:00
11:55 PM,24.8,5.0,43,30.07,10.0,West,12.7,27.6,N/A,,Clear,280,2014-01-07 04:55:00